User: anonymous   Login
Location: Unspecified
(0.0000°N, 0.0000°E)
Time: 07:40:40
(UTC+00:00)
Language:

KMS 4 - Orbit

View from above orbital plane
View from above orbital plane
View from above satellite
View from above satellite

Ground track
Ground track

The orbit data is extracted from the following two-line orbital elements,

1 41332U 16009A   17289.89741242 +.00002782 +00000-0 +94350-4 0  9997
2 41332 097.4449 348.4742 0023297 309.4747 050.4433 15.31166796094446
Epoch (UTC): 16 October 2017 21:32:16
Eccentricity: 0.0023297
inclination: 97.4449°
perigee height: 456 km
apogee height: 488 km
right ascension of ascending node: 348.4742°
argument of perigee: 309.4747°
revolutions per day: 15.31166796
mean anomaly at epoch: 50.4433°
orbit number at epoch: 9444

The dashed part of the orbit path shows where the satellite is in the earth's shadow,  

DLR